Total_Precipitation_Accumulation
0.02 0.03 0.05 0.04 0.05 0.08 0.13 0.20 0.29 0.35 0.28 0.40 0.55 0.66 0.82 0.99 1.23 1.33 1.47 1.58 1.84 2.13 2.52 3.28 3.97 4.46 5.08 5.87 6.40 6.29 5.67 5.27 4.86 4.38 3.93 4.00 3.92 3.69 3.48 3.31 3.21 3.27 3.20 3.05
0.03 0.06 0.05 0.04 0.04 0.07 0.11 0.18 0.25 0.29 0.24 0.27 0.48 0.79 0.94 1.02 1.23 1.21 1.27 1.36 1.56 1.97 2.63 3.41 3.99 4.09 4.07 4.33 4.56 4.06 3.88 3.94 3.66 3.51 3.52 3.52 3.43 3.14 3.00 3.06 3.39 3.07 3.08 2.99
0.04 0.07 0.05 0.05 0.06 0.08 0.13 0.16 0.20 0.29 0.29 0.35 0.57 1.04 1.26 1.10 1.15 1.11 1.15 1.37 1.83 2.26 2.70 3.21 3.37 3.32 3.16 3.12 3.08 2.87 2.85 3.22 3.25 3.35 3.42 3.44 3.47 3.31 3.17 3.09 3.35 2.99 2.74 2.68
0.03 0.05 0.05 0.06 0.07 0.08 0.13 0.12 0.10 0.14 0.25 0.51 0.71 1.28 1.55 1.38 1.29 1.07 1.21 1.65 2.09 2.40 2.67 2.70 2.27 2.10 2.15 2.23 2.33 2.59 2.74 2.96 2.92 3.11 3.10 3.03 2.82 2.72 2.67 2.70 2.91 2.96 2.66 2.52
0.04 0.05 0.05 0.06 0.06 0.06 0.10 0.11 0.10 0.14 0.29 0.63 0.89 1.35 1.68 1.53 1.27 1.08 1.09 1.15 1.57 1.74 1.73 1.67 1.54 1.49 1.66 1.93 2.17 2.51 2.69 2.81 2.77 2.79 2.91 3.12 3.02 3.01 2.87 2.81 3.09 3.12 3.14 2.90
0.05 0.06 0.06 0.05 0.05 0.06 0.09 0.14 0.23 0.31 0.49 1.06 1.15 1.24 1.59 1.44 1.21 1.09 0.94 0.86 1.12 1.19 1.08 1.21 1.30 1.49 1.73 1.88 1.96 2.18 2.39 2.68 2.72 2.70 2.78 2.87 3.00 3.22 3.16 3.10 2.94 2.79 2.92 2.89
0.10 0.10 0.08 0.05 0.05 0.06 0.08 0.14 0.41 0.78 1.08 1.26 0.98 1.09 1.45 1.11 0.89 0.80 0.69 0.66 0.73 0.80 0.91 1.12 1.28 1.51 1.61 1.66 1.65 1.80 1.91 2.15 2.41 2.50 2.55 2.69 2.88 3.03 2.99 3.04 2.98 2.84 2.61 2.48
0.16 0.15 0.10 0.06 0.06 0.07 0.07 0.10 0.21 0.38 0.53 0.74 0.92 1.35 1.47 1.03 0.68 0.56 0.54 0.55 0.58 0.71 0.84 0.95 1.14 1.23 1.31 1.49 1.67 1.83 1.81 1.84 1.92 2.04 2.25 2.42 2.49 2.63 2.66 2.99 2.87 2.80 2.65 2.48
0.06 0.07 0.06 0.06 0.06 0.05 0.06 0.06 0.08 0.13 0.21 0.50 1.03 1.29 1.22 0.85 0.67 0.65 0.67 0.70 0.74 0.78 0.92 0.91 0.94 1.15 1.27 1.23 1.30 1.49 1.59 1.68 1.81 1.92 2.08 2.10 2.11 2.23 2.45 2.51 2.38 2.23 2.33 2.42
0.04 0.05 0.05 0.05 0.05 0.05 0.07 0.07 0.08 0.11 0.22 0.42 0.86 1.40 1.61 1.26 0.92 0.78 0.84 0.79 0.76 0.78 0.87 0.95 0.96 1.05 1.14 1.18 1.32 1.39 1.49 1.64 1.74 1.79 1.89 1.77 1.82 1.91 2.14 2.24 2.23 2.14 2.07 2.23
0.03 0.04 0.05 0.05 0.08 0.08 0.08 0.08 0.10 0.14 0.17 0.28 0.65 1.02 1.00 1.08 0.95 0.76 0.77 0.76 0.73 0.70 0.76 0.89 0.93 1.03 1.07 1.09 1.24 1.41 1.57 1.68 1.62 1.67 1.72 1.77 1.85 2.00 2.09 2.06 2.10 2.12 2.14 2.28
0.03 0.04 0.03 0.06 0.08 0.10 0.10 0.11 0.12 0.15 0.18 0.20 0.38 0.62 0.60 0.67 0.84 1.05 1.00 0.83 0.82 0.89 0.84 0.91 0.93 0.96 0.97 1.01 1.10 1.26 1.48 1.62 1.69 1.69 1.81 1.94 2.00 2.10 2.15 2.02 2.09 2.28 2.31 2.38
0.04 0.04 0.05 0.14 0.19 0.17 0.14 0.14 0.14 0.14 0.14 0.16 0.31 0.55 0.55 0.56 0.63 0.79 0.94 1.03 0.91 0.79 0.81 0.85 1.00 0.96 0.91 0.96 1.02 1.19 1.49 1.70 1.93 2.03 2.04 2.07 2.03 2.09 2.21 2.24 2.24 2.33 2.43 2.50
0.04 0.04 0.05 0.14 0.23 0.25 0.23 0.19 0.16 0.13 0.12 0.13 0.21 0.45 0.57 0.71 0.77 0.81 0.93 1.06 0.91 0.75 0.76 0.88 1.02 1.11 1.19 1.20 1.22 1.35 1.52 1.62 1.82 1.89 1.91 2.04 2.13 2.26 2.40 2.46 2.49 2.50 2.48 2.49
0.04 0.04 0.04 0.05 0.08 0.15 0.23 0.22 0.16 0.12 0.10 0.13 0.17 0.31 0.52 0.73 0.86 0.96 1.01 1.05 0.95 0.90 0.94 0.98 1.11 1.25 1.35 1.45 1.43 1.41 1.50 1.58 1.78 2.16 2.38 2.55 2.58 2.61 2.71 2.76 2.73 2.76 2.70 2.60
0.08 0.07 0.06 0.06 0.08 0.10 0.14 0.18 0.15 0.12 0.12 0.15 0.19 0.35 0.51 0.77 0.84 0.93 0.93 0.98 0.97 1.04 1.13 1.24 1.31 1.39 1.44 1.52 1.63 1.68 1.71 1.83 2.04 2.50 2.86 3.00 3.04 3.06 3.07 3.09 3.07 3.08 3.02 3.14
0.14 0.14 0.11 0.08 0.10 0.13 0.18 0.17 0.17 0.16 0.16 0.21 0.28 0.41 0.55 0.73 0.94 1.04 0.94 0.84 0.90 1.02 1.12 1.21 1.35 1.48 1.56 1.66 1.75 1.89 1.99 2.11 2.28 2.56 2.79 2.89 2.98 3.06 3.21 3.21 3.18 3.15 3.15 3.19
0.23 0.24 0.21 0.15 0.17 0.26 0.24 0.25 0.27 0.26 0.28 0.32 0.45 0.60 0.69 0.76 0.88 0.94 0.84 0.86 0.93 1.03 1.14 1.24 1.32 1.54 1.71 1.88 2.12 2.41 2.57 2.71 2.71 2.79 2.95 3.04 3.00 3.03 3.08 3.06 2.95 2.96 3.09 3.11
0.28 0.32 0.31 0.29 0.30 0.30 0.32 0.37 0.39 0.41 0.53 0.59 0.72 0.86 0.98 0.99 0.98 1.11 1.02 0.99 1.07 1.21 1.36 1.55 1.75 1.86 1.94 2.04 2.21 2.45 2.75 2.94 2.96 2.84 2.93 3.06 3.15 3.25 3.15 3.07 3.05 3.08 3.14 3.04
0.33 0.38 0.46 0.42 0.47 0.52 0.49 0.51 0.49 0.56 0.99 0.90 0.98 1.11 1.23 1.35 1.67 1.67 1.39 1.42 1.37 1.35 1.49 1.67 1.86 1.97 1.98 2.10 2.19 2.31 2.52 2.65 2.74 2.78 2.91 3.03 3.14 3.32 3.42 3.37 3.40 3.34 3.25 3.19
0.52 0.57 0.52 0.53 0.61 0.64 0.57 0.53 0.61 1.11 1.56 1.31 1.26 1.34 1.46 1.63 1.72 1.65 1.50 1.57 1.57 1.42 1.41 1.46 1.53 1.69 1.78 1.86 1.99 2.19 2.29 2.28 2.38 2.49 2.55 2.73 2.98 3.22 3.38 3.48 3.49 3.50 3.41 3.32
0.81 0.88 0.82 0.79 1.00 1.12 0.76 0.67 1.05 1.47 1.45 1.57 1.49 1.51 1.61 1.67 1.71 1.74 1.73 1.70 1.60 1.49 1.38 1.39 1.48 1.60 1.69 1.86 2.16 2.38 2.37 2.33 2.36 2.47 2.61 2.76 2.99 3.09 3.14 3.26 3.32 3.48 3.45 3.34
1.09 1.17 1.21 1.24 1.40 1.26 0.94 1.01 1.14 1.19 1.41 1.51 1.56 1.62 1.67 1.62 1.59 1.52 1.49 1.53 1.59 1.48 1.45 1.40 1.44 1.57 1.80 2.06 2.34 2.59 2.59 2.61 2.66 2.71 2.81 2.90 2.99 3.09 3.18 3.26 3.26 3.28 3.27 3.11
1.18 1.01 1.25 1.55 1.72 1.51 1.27 1.21 1.25 1.32 1.46 1.59 1.72 1.85 1.83 1.67 1.50 1.50 1.51 1.50 1.57 1.54 1.48 1.45 1.48 1.60 1.81 1.95 2.08 2.33 2.50 2.55 2.73 2.75 2.69 2.69 2.70 2.78 2.87 2.99 3.03 2.99 2.91 2.85
1.31 1.31 1.52 1.94 2.13 1.96 1.72 1.52 1.50 1.55 1.78 1.95 1.93 1.90 1.82 1.79 1.73 1.78 1.75 1.63 1.56 1.54 1.58 1.58 1.63 1.74 1.79 1.82 1.88 2.01 2.22 2.39 2.60 2.74 2.75 2.79 2.79 2.84 2.90 2.97 3.05 2.93 2.78 2.76
1.26 1.61 1.96 2.30 2.20 2.27 2.13 1.75 1.70 1.75 1.91 2.02 1.96 1.96 2.00 2.00 1.92 1.78 1.70 1.63 1.60 1.61 1.66 1.74 1.83 1.86 1.87 1.85 1.94 2.06 2.25 2.50 2.77 2.78 2.69 2.73 2.81 2.91 3.00 3.05 3.07 3.12 2.83 2.74